[[{"header":{"parameterUnit":"m.s-1","parameterCategory":1,"la1":30.2991,"la2":30.254,"lo1":-89.0895,"lo2":-89.0444,"dy":0.0017,"dx":0.0017,"nx":28,"ny":28,"refTime":"2024-06-30T21:00:00:Z","depth":0,"parameterNumber":2,"parameterNumberName":"U-component_of_WINDS"},"data":[0,0,0,0,0,0,0,0,0,0,0,0,0,0,0,0,0,0,0,0,0,0,0,0,0,0,0,0,0,0,0,0,0,0,0,0,0,0,0,0,0,0,0,0,0,0,0,0,0,0,0,0,0,0,0,0,0,0,1.6251,1.6252,0,1.6323,1.6324,1.6325,1.6332,1.6331,1.633,1.6329,1.6407,1.641,1.6413,0,0,0,0,0,0,0,0,0,0,0,0,0,1.6127,1.6129,1.6251,1.6252,1.6253,1.6323,1.6324,1.6325,1.6332,1.6331,1.633,1.6329,1.6406,1.641,1.6413,0,0,0,0,0,0,0,0,0,0,0,0,0,1.6188,1.613,1.6251,1.6265,1.6267,1.6323,1.6324,1.6325,1.6332,1.6331,1.633,1.6329,1.6405,1.6409,1.6413,1.6462,0,0,1.6426,1.6428,0,0,0,0,0,0,0,0,1.6184,1.6192,1.6262,1.6264,1.6266,1.6317,1.6308,1.6371,1.6332,1.6307,1.6329,1.6328,1.6379,1.6385,1.6401,1.6465,1.6469,1.6427,1.6429,1.6431,1.6432,0,0,0,0,0,0,0,1.618,1.6189,1.628,1.6263,1.6266,1.6269,1.6277,1.632,1.6349,1.6309,1.631,1.6318,1.638,1.6397,1.6403,1.647,1.6426,1.643,1.6433,1.6434,1.6581,1.6582,0,0,0,0,0,0,1.6173,1.6186,1.6277,1.6282,1.6222,1.6273,1.6281,1.6302,1.6348,1.6354,1.6319,1.6318,1.639,1.6398,1.6406,1.6467,1.6431,1.6435,1.6437,1.658,1.6581,1.6583,0,0,0,0,0,0,1.617,1.6181,1.6275,1.6234,1.6246,1.6276,1.63,1.6304,1.6321,1.6355,1.6361,1.6331,1.639,1.64,1.6448,1.647,1.6437,1.644,1.6578,1.658,1.6582,1.6589,0,0,0,0,0,0,1.6166,1.618,1.6197,1.6234,1.6248,1.6314,1.6301,1.6306,1.6328,1.6327,1.6368,1.6374,1.639,1.6442,1.6452,1.6475,1.6444,1.6576,1.6579,1.6581,1.6587,1.6591,1.6594,0,0,0,0,0,1.6162,1.6196,1.6197,1.6208,1.627,1.6315,1.6323,1.6339,1.6329,1.6348,1.6371,1.6373,1.6465,1.6447,1.6458,1.6483,1.6575,1.6578,1.6581,1.6585,1.659,1.6594,0,0,0,0,0,0,1.6161,1.6201,1.6203,1.625,1.6279,1.6316,1.634,1.6344,1.6377,1.6376,1.6396,1.6405,1.6453,1.6473,1.6451,1.6533,1.652,1.6525,1.6518,1.6523,1.6527,1.6522,1.6447,0,0,0,0,0,1.6166,1.6198,1.6232,1.627,1.6285,1.631,1.633,1.634,1.6371,1.6384,1.641,1.6442,1.6478,1.6502,1.6537,1.659,1.66,1.6612,1.6616,1.6619,1.6624,1.6656,1.6662,1.6593,1.6593,1.6593,0,0,1.6177,1.6203,1.6222,1.6271,1.6294,1.6329,1.632,1.6356,1.6383,1.639,1.6437,1.6458,1.6495,1.6546,1.657,1.6564,1.6646,1.6623,1.6625,1.6629,1.666,1.6666,1.6672,1.6595,1.6595,1.6595,0,0,1.6215,1.6237,1.6272,1.6297,1.6332,1.6349,1.6358,1.6395,1.6408,1.6456,1.6463,1.6496,1.6558,1.6584,1.6606,1.6657,1.6662,1.6669,1.6688,1.6719,1.6725,1.673,1.675,1.6756,1.6673,1.6673,1.6673,0,1.6225,1.6275,1.6291,1.6327,1.6349,1.6357,1.6395,1.6418,1.6464,1.648,1.6472,1.6552,1.6577,1.6636,1.6649,1.6665,1.6678,1.6664,1.6722,1.6727,1.6732,1.6752,1.6759,1.6674,1.6674,1.6674,1.6674,0,1.6286,1.6322,1.6346,1.639,1.6415,1.6452,1.6475,1.6499,1.6508,1.6526,1.6576,1.6607,1.665,1.6665,1.6673,1.6726,1.6721,1.6718,1.6704,1.6739,1.6758,1.6765,1.6675,1.6675,1.6674,1.6674,0,0,1.6325,1.6377,1.6386,1.6407,1.6448,1.6477,1.6515,1.6556,1.6578,1.661,1.6644,1.6697,1.6695,1.672,1.6732,1.6759,1.68,1.6753,1.6754,1.6762,1.6862,1.6865,1.6873,1.6803,1.6805,1.6806,1.686,0,1.6368,1.6435,1.6451,1.651,1.6544,1.6553,1.6587,1.6617,1.6636,1.667,1.6691,1.6729,1.6722,1.6738,1.6765,1.6789,1.6821,1.6786,1.6837,1.6839,1.6828,1.6883,1.6885,1.6934,1.6867,1.6868,1.6869,0,1.6427,1.6461,1.6522,1.6561,1.6576,1.6606,1.6646,1.6677,1.6713,1.6725,1.6754,1.6764,1.6807,1.6791,1.6852,1.6828,1.6851,1.6866,1.6869,1.6875,1.6856,1.6891,1.695,1.6958,1.688,1.6879,1.6878,0,1.6451,1.6511,1.6556,1.6574,1.662,1.6641,1.6661,1.6696,1.672,1.6756,1.6773,1.6813,1.6836,1.6869,1.6891,1.6877,1.6951,1.6936,1.6964,1.6964,1.698,1.6978,1.7044,1.6992,1.6992,1.6992,1.6992,0,1.6498,1.6536,1.6568,1.6595,1.6639,1.6658,1.6702,1.6723,1.6754,1.6787,1.6798,1.683,1.6857,1.6893,1.6911,1.696,1.697,1.6983,1.6987,1.6982,1.6981,1.6998,1.6995,1.6994,1.6994,1.6993,1.6993,0,1.6532,1.6554,1.6604,1.6644,1.6655,1.6686,1.6721,1.675,1.6769,1.6812,1.6824,1.6856,1.6899,1.6924,1.6979,1.6991,1.7047,1.7049,1.7034,1.7036,1.7063,1.7061,1.7143,1.7155,1.7094,1.7095,1.7095,0,1.6561,1.659,1.6633,1.6656,1.6677,1.6714,1.6739,1.676,1.6786,1.6831,1.6855,1.6899,1.6935,1.7005,1.7034,1.7077,1.7081,1.7107,1.7088,1.7083,1.7084,1.7082,1.7086,1.7111,1.7111,1.7112,1.7112,0,1.6611,1.6621,1.6656,1.6695,1.6725,1.6758,1.679,1.6809,1.6836,1.6865,1.6909,1.6938,1.6994,1.7039,1.7085,1.7108,1.7116,1.7118,1.7127,1.7122,1.7113,1.712,1.7044,1.7116,1.7115,1.7115,1.7115,1.7115,1.6644,1.6671,1.6706,1.6746,1.6772,1.6803,1.6832,1.6856,1.6893,1.694,1.6951,1.6998,1.7036,1.7098,1.7123,1.7162,1.7158,1.717,1.7174,1.7177,1.7178,1.7106,1.717,1.717,1.717,1.717,1.717,0,1.6695,1.6719,1.6755,1.68,1.6832,1.6835,1.6872,1.6899,1.694,1.6974,1.7009,1.7062,1.7105,1.7139,1.7184,1.7209,1.7214,1.7221,1.722,1.7225,1.7179,1.7167,1.7216,1.7216,1.7216,1.7216,1.7216,1.7216,1.6726,1.6773,1.6788,1.6849,1.6873,1.6918,1.6939,1.6969,1.6996,1.7054,1.709,1.7111,1.7146,1.7194,1.7235,1.7244,1.7261,1.7268,1.7277,1.7233,1.7228,1.7224,1.7213,1.7271,1.7271,1.7321,1.7322,1.7322]},{"header":{"parameterUnit":"m.s-1","parameterCategory":1,"la1":30.2991,"la2":30.254,"lo1":-89.0895,"lo2":-89.0444,"dy":0.0017,"dx":0.0017,"nx":28,"ny":28,"refTime":"2024-06-30T21:00:00:Z","depth":0,"parameterNumber":3,"parameterNumberName":"V-component_of_WINDS"},"data":[0,0,0,0,0,0,0,0,0,0,0,0,0,0,0,0,0,0,0,0,0,0,0,0,0,0,0,0,0,0,0,0,0,0,0,0,0,0,0,0,0,0,0,0,0,0,0,0,0,0,0,0,0,0,0,0,0,0,1.5801,1.5801,0,1.5811,1.5812,1.5812,1.5792,1.5791,1.579,1.579,1.5799,1.58,1.5801,0,0,0,0,0,0,0,0,0,0,0,0,0,1.5761,1.5761,1.5801,1.5801,1.5801,1.5811,1.5812,1.5812,1.5792,1.5791,1.579,1.579,1.5799,1.58,1.5801,0,0,0,0,0,0,0,0,0,0,0,0,0,1.5775,1.5762,1.5801,1.5793,1.5792,1.5811,1.5812,1.5812,1.5792,1.5791,1.579,1.5789,1.5798,1.58,1.5801,1.5828,0,0,1.5805,1.5805,0,0,0,0,0,0,0,0,1.5774,1.5777,1.5794,1.5793,1.5793,1.5799,1.5801,1.5817,1.5792,1.5792,1.579,1.5789,1.58,1.5801,1.5805,1.5829,1.5829,1.5805,1.5806,1.5806,1.5807,0,0,0,0,0,0,0,1.5773,1.5776,1.5805,1.5794,1.5793,1.5787,1.5788,1.5804,1.5801,1.5792,1.5791,1.5792,1.5799,1.5804,1.5805,1.5829,1.5805,1.5806,1.5807,1.5807,1.5871,1.5872,0,0,0,0,0,0,1.5774,1.5776,1.5805,1.5805,1.5781,1.5789,1.579,1.5798,1.5801,1.5801,1.5793,1.5791,1.5802,1.5803,1.5805,1.5834,1.5806,1.5807,1.5808,1.587,1.5872,1.5873,0,0,0,0,0,0,1.5773,1.5777,1.5804,1.579,1.5793,1.5791,1.58,1.5799,1.5803,1.5802,1.5801,1.5798,1.5801,1.5803,1.5822,1.5835,1.5808,1.5809,1.5869,1.5871,1.5872,1.5895,0,0,0,0,0,0,1.5772,1.5777,1.5788,1.5791,1.5794,1.5822,1.5801,1.58,1.5806,1.5803,1.5806,1.5806,1.5801,1.582,1.5823,1.5836,1.581,1.5868,1.587,1.5872,1.5893,1.5897,1.5901,0,0,0,0,0,1.5771,1.5795,1.5789,1.5792,1.5808,1.5823,1.5825,1.5819,1.5807,1.5817,1.5816,1.5806,1.5833,1.5822,1.5825,1.5839,1.5867,1.5869,1.5872,1.5892,1.5896,1.5901,0,0,0,0,0,0,1.5794,1.5795,1.5788,1.5814,1.5819,1.582,1.5833,1.5825,1.5832,1.583,1.5821,1.5822,1.5841,1.5842,1.583,1.5863,1.5848,1.5851,1.5862,1.5867,1.587,1.5869,1.5811,0,0,0,0,0,1.5803,1.5815,1.5815,1.5837,1.584,1.5836,1.5842,1.5837,1.5841,1.5842,1.5842,1.5846,1.5855,1.5861,1.587,1.5893,1.5892,1.5904,1.5908,1.5911,1.5913,1.5922,1.5926,1.588,1.588,1.588,0,0,1.582,1.5822,1.583,1.5842,1.5845,1.5856,1.5838,1.5852,1.5859,1.5845,1.5861,1.5861,1.5864,1.5884,1.5893,1.5886,1.5925,1.5913,1.5916,1.5916,1.5925,1.5929,1.5933,1.5881,1.5881,1.5881,0,0,1.5856,1.586,1.5878,1.588,1.5884,1.5881,1.5885,1.5887,1.5886,1.5903,1.589,1.5899,1.5916,1.5917,1.592,1.5954,1.5944,1.5957,1.5976,1.5985,1.5988,1.5992,1.6001,1.6005,1.5959,1.5959,1.5959,0,1.5877,1.5895,1.5888,1.5901,1.5906,1.5892,1.5908,1.5911,1.5918,1.592,1.5912,1.593,1.5931,1.595,1.5958,1.5962,1.5964,1.5956,1.5989,1.5992,1.5995,1.6003,1.6007,1.5961,1.5961,1.596,1.596,0,1.5918,1.593,1.5944,1.5949,1.5955,1.597,1.5964,1.5971,1.5964,1.5961,1.5976,1.5977,1.5984,1.5988,1.5983,1.6005,1.6,1.599,1.5974,1.6,1.6008,1.6012,1.5963,1.5962,1.5962,1.5961,0,0,1.5971,1.597,1.5975,1.5976,1.5978,1.5987,1.6,1.6006,1.6011,1.6015,1.6024,1.6037,1.6027,1.603,1.6024,1.6033,1.6055,1.6021,1.6021,1.6025,1.6077,1.6083,1.6087,1.6049,1.605,1.605,1.6076,0,1.6004,1.6027,1.602,1.6042,1.6052,1.6038,1.6049,1.605,1.6047,1.6053,1.605,1.6058,1.6046,1.6047,1.6055,1.6051,1.6065,1.6049,1.6055,1.6056,1.6053,1.6092,1.6099,1.6123,1.6079,1.608,1.608,0,1.6047,1.6052,1.6075,1.6072,1.6076,1.6086,1.609,1.6097,1.6097,1.6094,1.6096,1.6088,1.6098,1.6083,1.6096,1.6085,1.6087,1.6085,1.6086,1.6085,1.6068,1.609,1.6131,1.6134,1.6085,1.6085,1.6084,0,1.608,1.6092,1.6106,1.6108,1.6106,1.6113,1.6112,1.6112,1.6115,1.6118,1.6119,1.6124,1.6125,1.6128,1.612,1.611,1.6133,1.6118,1.6129,1.6129,1.6133,1.6133,1.6173,1.6138,1.6138,1.6138,1.6138,0,1.6117,1.6131,1.612,1.6129,1.6143,1.6134,1.6148,1.6146,1.6145,1.6152,1.614,1.6147,1.6136,1.6141,1.6135,1.6145,1.6146,1.6143,1.614,1.6143,1.6143,1.6143,1.614,1.6139,1.6138,1.6138,1.6138,0,1.6155,1.6149,1.6163,1.616,1.6159,1.6169,1.6166,1.6173,1.6168,1.6176,1.6178,1.6171,1.6175,1.6168,1.6172,1.6167,1.618,1.6177,1.618,1.6178,1.6189,1.6187,1.6229,1.6233,1.6197,1.6197,1.6198,0,1.6179,1.6189,1.6186,1.6189,1.6189,1.6195,1.6198,1.6189,1.6192,1.6191,1.6197,1.6201,1.6203,1.6211,1.6205,1.6208,1.6203,1.6217,1.6203,1.6204,1.62,1.6199,1.6198,1.622,1.622,1.622,1.6221,0,1.622,1.6215,1.622,1.6223,1.6226,1.6228,1.6229,1.6232,1.6222,1.6225,1.623,1.6232,1.6235,1.6238,1.6238,1.6236,1.6226,1.6225,1.6227,1.6229,1.623,1.6227,1.6186,1.6224,1.6224,1.6224,1.6223,1.6223,1.6249,1.6256,1.6254,1.6259,1.6258,1.6259,1.6264,1.626,1.6263,1.6265,1.6259,1.6264,1.6261,1.6261,1.626,1.6262,1.6256,1.626,1.626,1.6261,1.6262,1.6231,1.6263,1.6263,1.6263,1.6262,1.6262,0,1.6287,1.6285,1.6289,1.629,1.6293,1.6284,1.6283,1.6286,1.6291,1.6289,1.6291,1.6295,1.6297,1.6291,1.6291,1.6295,1.629,1.6295,1.6294,1.6293,1.6269,1.6266,1.6299,1.6299,1.6299,1.6299,1.6299,1.6299,1.6307,1.6318,1.6313,1.6322,1.6319,1.6324,1.6324,1.6324,1.6322,1.6327,1.6328,1.6324,1.632,1.632,1.6321,1.6319,1.6319,1.6325,1.6321,1.6298,1.6295,1.6291,1.6288,1.6326,1.6326,1.6345,1.6345,1.6345]}]]